• In Belarus
  • List of Countries
  • For 7 days
  • Water Temperature
  • Satellite Maps
  • Weather Map
  • Weather Widgets
  • user-avatar
    Login

    Hourly Weather Munchenstein

    Today, 22 September, Saturday

    Time Temperature Precipitation Wind Pressure Humidity
    00:00 +13°C° 0 mm 1 mps 731 mmHg 92%
    01:00 +12°C° 0 mm 1 mps 731 mmHg 92%
    02:00 +12°C° 0 mm 1 mps 731 mmHg 93%
    03:00 +11°C° 0 mm 1 mps 731 mmHg 93%
    04:00 +11°C° 0 mm 1 mps 732 mmHg 93%
    05:00 +11°C° 0 mm 1 mps 732 mmHg 92%
    06:00 +11°C° 0 mm 1 mps 732 mmHg 91%
    07:00 +11°C° 0 mm 1 mps 732 mmHg 90%
    08:00 +13°C° 0 mm 1 mps 732 mmHg 80%
    09:00 +14°C° 0 mm 1 mps 732 mmHg 71%
    10:00 +16°C° 0 mm 1 mps 732 mmHg 61%
    11:00 +19°C° 0 mm 1 mps 732 mmHg 54%
    12:00 +19°C° 0 mm 2 mps 732 mmHg 47%
    13:00 +20°C° 0 mm 2 mps 732 mmHg 41%
    14:00 +20°C° 0 mm 2 mps 731 mmHg 41%
    15:00 +20°C° 0 mm 2 mps 731 mmHg 42%
    16:00 +20°C° 0 mm 2 mps 731 mmHg 42%
    17:00 +19°C° 0 mm 2 mps 731 mmHg 47%
    18:00 +18°C° 0 mm 1 mps 731 mmHg 52%
    19:00 +16°C° 0 mm 1 mps 731 mmHg 58%
    20:00 +15°C° 0 mm 1 mps 731 mmHg 58%
    21:00 +15°C° 0 mm 1 mps 731 mmHg 58%
    22:00 +15°C° 0 mm 1 mps 731 mmHg 58%
    23:00 +16°C° 0 mm 1 mps 731 mmHg 58%

    Tomorrow, 23 September, Sunday

    Time Temperature Precipitation Wind Pressure Humidity
    00:00 +16°C° 0 mm 2 mps 731 mmHg 57%
    01:00 +16°C° 0 mm 2 mps 730 mmHg 57%
    02:00 +16°C° 0 mm 2 mps 730 mmHg 56%
    03:00 +17°C° 0 mm 3 mps 730 mmHg 54%
    04:00 +17°C° 0 mm 3 mps 730 mmHg 52%
    05:00 +17°C° 0 mm 3 mps 730 mmHg 55%
    06:00 +17°C° 0 mm 3 mps 729 mmHg 57%
    07:00 +17°C° 0 mm 3 mps 729 mmHg 59%
    08:00 +18°C° 0 mm 3 mps 729 mmHg 61%
    09:00 +19°C° 0 mm 4 mps 729 mmHg 64%
    10:00 +20°C° 0 mm 4 mps 729 mmHg 66%
    11:00 +22°C° 0 mm 4 mps 729 mmHg 64%
    12:00 +23°C° 0 mm 5 mps 729 mmHg 61%
    13:00 +26°C° 0 mm 6 mps 728 mmHg 59%
    14:00 +26°C° 0 mm 6 mps 728 mmHg 59%
    15:00 +26°C° 0 mm 6 mps 727 mmHg 59%
    16:00 +26°C° 0 mm 6 mps 727 mmHg 59%
    17:00 +24°C° 0.1 mm 6 mps 726 mmHg 64%
    18:00 +23°C° 0.1 mm 6 mps 726 mmHg 68%
    19:00 +21°C° 0.1 mm 6 mps 725 mmHg 73%
    20:00 +20°C° 1.8 mm 7 mps 726 mmHg 78%
    21:00 +17°C° 1.8 mm 7 mps 727 mmHg 83%
    22:00 +15°C° 1.8 mm 7 mps 728 mmHg 88%
    23:00 +14°C° 0.5 mm 5 mps 730 mmHg 89%

    Day after tomorrow, 24 September, Monday

    Time Temperature Precipitation Wind Pressure Humidity
    00:00 +12°C° 0.5 mm 4 mps 731 mmHg 89%
    01:00 +10°C° 0.5 mm 2 mps 732 mmHg 89%
    02:00 +10°C° 0 mm 2 mps 733 mmHg 89%
    03:00 +9°C° 0 mm 2 mps 734 mmHg 89%
    04:00 +10°C° 0 mm 1 mps 734 mmHg 89%
    05:00 +9°C° 0 mm 1 mps 735 mmHg 89%
    06:00 +9°C° 0 mm 1 mps 735 mmHg 90%
    07:00 +8°C° 0 mm 1 mps 736 mmHg 90%
    08:00 +9°C° 0 mm 2 mps 736 mmHg 83%
    09:00 +10°C° 0 mm 3 mps 736 mmHg 76%
    10:00 +11°C° 0 mm 3 mps 737 mmHg 68%
    11:00 +12°C° 0 mm 3 mps 737 mmHg 62%
    12:00 +13°C° 0 mm 4 mps 737 mmHg 55%
    13:00 +14°C° 0 mm 4 mps 737 mmHg 49%
    14:00 +14°C° 0 mm 4 mps 737 mmHg 48%
    15:00 +15°C° 0 mm 4 mps 737 mmHg 47%
    16:00 +15°C° 0 mm 5 mps 737 mmHg 46%
    17:00 +13°C° 0 mm 4 mps 737 mmHg 51%
    18:00 +11°C° 0 mm 3 mps 737 mmHg 56%
    19:00 +10°C° 0 mm 3 mps 737 mmHg 61%
    20:00 +9°C° 0 mm 3 mps 738 mmHg 63%
    21:00 +8°C° 0 mm 3 mps 738 mmHg 64%
    22:00 +8°C° 0 mm 3 mps 738 mmHg 66%
    23:00 +7°C° 0 mm 3 mps 738 mmHg 66%

    25 September, Tuesday

    Time Temperature Precipitation Wind Pressure Humidity
    00:00 +7°C° 0 mm 3 mps 738 mmHg 67%
    01:00 +5°C° 0 mm 3 mps 738 mmHg 68%
    02:00 +5°C° 0 mm 3 mps 738 mmHg 70%
    03:00 +5°C° 0 mm 3 mps 738 mmHg 73%
    04:00 +5°C° 0 mm 3 mps 738 mmHg 75%
    05:00 +5°C° 0 mm 3 mps 738 mmHg 77%
    06:00 +5°C° 0 mm 3 mps 738 mmHg 78%
    07:00 +4°C° 0 mm 3 mps 738 mmHg 80%
    08:00 +8°C° 0 mm 3 mps 738 mmHg 71%
    09:00 +10°C° 0 mm 4 mps 738 mmHg 62%
    10:00 +12°C° 0 mm 4 mps 738 mmHg 53%
    11:00 +13°C° 0 mm 4 mps 738 mmHg 49%
    12:00 +15°C° 0 mm 4 mps 738 mmHg 45%
    13:00 +16°C° 0 mm 5 mps 738 mmHg 41%
    14:00 +17°C° 0 mm 4 mps 737 mmHg 42%
    15:00 +17°C° 0 mm 4 mps 737 mmHg 44%
    16:00 +17°C° 0 mm 4 mps 737 mmHg 45%
    17:00 +14°C° 0 mm 3 mps 737 mmHg 52%
    18:00 +12°C° 0 mm 3 mps 737 mmHg 59%
    19:00 +10°C° 0 mm 2 mps 737 mmHg 67%
    20:00 +9°C° 0 mm 2 mps 737 mmHg 70%
    21:00 +8°C° 0 mm 2 mps 737 mmHg 73%
    22:00 +8°C° 0 mm 1 mps 737 mmHg 76%
    23:00 +7°C° 0 mm 1 mps 737 mmHg 77%

    26 September, Wednesday

    Time Temperature Precipitation Wind Pressure Humidity
    00:00 +7°C° 0 mm 1 mps 737 mmHg 79%
    01:00 +6°C° 0 mm 1 mps 737 mmHg 80%
    02:00 +6°C° 0 mm 1 mps 737 mmHg 80%
    03:00 +6°C° 0 mm 1 mps 737 mmHg 80%
    04:00 +6°C° 0 mm 1 mps 737 mmHg 80%
    05:00 +6°C° 0 mm 1 mps 737 mmHg 79%
    06:00 +6°C° 0 mm 1 mps 737 mmHg 78%
    07:00 +7°C° 0 mm 1 mps 737 mmHg 77%
    08:00 +10°C° 0 mm 1 mps 737 mmHg 68%
    09:00 +13°C° 0 mm 1 mps 737 mmHg 59%
    10:00 +16°C° 0 mm 1 mps 737 mmHg 50%
    11:00 +19°C° 0 mm 1 mps 737 mmHg 46%
    12:00 +21°C° 0 mm 1 mps 737 mmHg 42%
    13:00 +23°C° 0 mm 1 mps 737 mmHg 39%
    14:00 +23°C° 0 mm 1 mps 737 mmHg 39%
    15:00 +23°C° 0 mm 1 mps 736 mmHg 40%
    16:00 +23°C° 0 mm 1 mps 736 mmHg 41%
    17:00 +20°C° 0 mm 1 mps 736 mmHg 50%
    18:00 +16°C° 0 mm 1 mps 736 mmHg 59%
    19:00 +14°C° 0 mm 1 mps 736 mmHg 68%
    20:00 +13°C° 0 mm 1 mps 736 mmHg 70%
    21:00 +12°C° 0 mm 1 mps 736 mmHg 72%
    22:00 +12°C° 0 mm 1 mps 736 mmHg 75%
    23:00 +11°C° 0 mm 1 mps 736 mmHg 75%

    27 September, Thursday

    Time Temperature Precipitation Wind Pressure Humidity
    00:00 +11°C° 0 mm 1 mps 735 mmHg 76%
    01:00 +11°C° 0 mm 1 mps 735 mmHg 77%
    02:00 +10°C° 0 mm 1 mps 735 mmHg 77%
    03:00 +10°C° 0 mm 1 mps 735 mmHg 76%
    04:00 +10°C° 0 mm 1 mps 735 mmHg 76%
    05:00 +10°C° 0 mm 1 mps 735 mmHg 75%
    06:00 +10°C° 0 mm 1 mps 735 mmHg 74%
    07:00 +10°C° 0 mm 1 mps 735 mmHg 73%
    08:00 +14°C° 0 mm 1 mps 735 mmHg 64%
    09:00 +18°C° 0 mm 1 mps 735 mmHg 55%
    10:00 +21°C° 0 mm 1 mps 735 mmHg 46%
    11:00 +22°C° 0 mm 1 mps 735 mmHg 42%
    12:00 +24°C° 0 mm 1 mps 735 mmHg 38%
    13:00 +25°C° 0 mm 2 mps 734 mmHg 34%
    14:00 +25°C° 0 mm 1 mps 734 mmHg 36%
    15:00 +25°C° 0 mm 1 mps 734 mmHg 38%
    16:00 +25°C° 0 mm 1 mps 734 mmHg 41%
    17:00 +22°C° 0 mm 1 mps 734 mmHg 49%
    18:00 +20°C° 0 mm 1 mps 734 mmHg 58%
    19:00 +16°C° 0 mm 1 mps 733 mmHg 66%
    20:00 +15°C° 0 mm 1 mps 734 mmHg 69%
    21:00 +14°C° 0 mm 1 mps 734 mmHg 72%
    22:00 +13°C° 0 mm 1 mps 734 mmHg 75%
    23:00 +12°C° 0 mm 0 mps 733 mmHg 76%
    Show more